Time,TemperatureF,DewpointF,PressureIn,WindDirection,WindDirectionDegrees,WindSpeedMPH,WindSpeedGustMPH,Humidity,HourlyPrecipIn,Conditions,Clouds,dailyrainin,SoftwareType,DateUTC
2015-03-31 00:04:00,41.1,21.3,30.17,East,101,2.0,3.0,45,0.00,,,0.00,Wunderground v.1.15,2015-03-31 06:04:00,
2015-03-31 00:10:00,40.3,21.6,30.17,East,87,1.0,1.0,47,0.00,,,0.00,Wunderground v.1.15,2015-03-31 06:10:00,
2015-03-31 00:16:00,39.7,21.6,30.17,NE,35,1.0,3.0,48,0.00,,,0.00,Wunderground v.1.15,2015-03-31 06:16:00,
2015-03-31 00:22:00,40.0,21.9,30.17,WSW,240,2.0,2.0,48,0.00,,,0.00,Wunderground v.1.15,2015-03-31 06:22:00,
2015-03-31 00:27:00,39.3,21.2,30.17,WSW,241,1.0,2.0,48,0.00,,,0.00,Wunderground v.1.15,2015-03-31 06:27:00,
2015-03-31 00:33:00,38.9,21.3,30.16,North,355,0.0,1.0,49,0.00,,,0.00,Wunderground v.1.15,2015-03-31 06:33:00,
2015-03-31 00:39:00,38.8,21.7,30.16,NNE,30,0.0,1.0,50,0.00,,,0.00,Wunderground v.1.15,2015-03-31 06:39:00,
2015-03-31 00:45:00,38.8,21.7,30.16,NNE,27,0.0,0.0,50,0.00,,,0.00,Wunderground v.1.15,2015-03-31 06:45:00,
2015-03-31 00:51:00,37.7,21.2,30.16,West,269,1.0,3.0,51,0.00,,,0.00,Wunderground v.1.15,2015-03-31 06:51:00,
2015-03-31 00:57:00,36.9,21.3,30.16,WNW,286,2.0,3.0,53,0.00,,,0.00,Wunderground v.1.15,2015-03-31 06:57:00,
2015-03-31 01:03:00,36.5,21.4,30.16,WNW,303,2.0,2.0,54,0.00,,,0.00,Wunderground v.1.15,2015-03-31 07:03:00,
2015-03-31 01:09:00,36.4,21.8,30.17,WNW,286,2.0,4.0,55,0.00,,,0.00,Wunderground v.1.15,2015-03-31 07:09:00,
2015-03-31 01:14:00,36.3,21.7,30.16,NNW,328,2.0,2.0,55,0.00,,,0.00,Wunderground v.1.15,2015-03-31 07:14:00,
2015-03-31 01:20:00,36.6,21.9,30.16,NW,322,2.0,2.0,55,0.00,,,0.00,Wunderground v.1.15,2015-03-31 07:20:00,
2015-03-31 01:26:00,37.0,21.9,30.16,NNW,345,2.0,3.0,54,0.00,,,0.00,Wunderground v.1.15,2015-03-31 07:26:00,
2015-03-31 01:32:00,37.1,21.5,30.15,NNW,338,1.0,2.0,53,0.00,,,0.00,Wunderground v.1.15,2015-03-31 07:32:00,
2015-03-31 01:38:00,37.8,21.7,30.15,NNW,336,1.0,2.0,52,0.00,,,0.00,Wunderground v.1.15,2015-03-31 07:38:00,
2015-03-31 01:44:00,38.2,21.6,30.15,NW,313,1.0,2.0,51,0.00,,,0.00,Wunderground v.1.15,2015-03-31 07:44:00,
2015-03-31 01:50:00,38.8,21.7,30.15,NW,317,2.0,2.0,50,0.00,,,0.00,Wunderground v.1.15,2015-03-31 07:50:00,
2015-03-31 01:55:00,38.9,21.3,30.15,NW,306,1.0,2.0,49,0.00,,,0.00,Wunderground v.1.15,2015-03-31 07:55:00,
2015-03-31 02:00:00,37.8,20.8,30.14,NW,306,0.0,0.0,50,0.00,,,0.00,Wunderground v.1.15,2015-03-31 08:00:00,
2015-03-31 02:06:00,36.2,20.7,30.15,SSW,203,0.0,2.0,53,0.00,,,0.00,Wunderground v.1.15,2015-03-31 08:06:00,
2015-03-31 02:12:00,35.3,20.7,30.15,SSW,203,1.0,1.0,55,0.00,,,0.00,Wunderground v.1.15,2015-03-31 08:12:00,
2015-03-31 02:17:00,34.8,20.7,30.15,SSW,203,0.0,1.0,56,0.00,,,0.00,Wunderground v.1.15,2015-03-31 08:17:00,
2015-03-31 02:23:00,33.7,20.5,30.14,SSW,203,0.0,0.0,58,0.00,,,0.00,Wunderground v.1.15,2015-03-31 08:23:00,
2015-03-31 02:28:00,33.0,20.2,30.14,SSW,203,0.0,0.0,59,0.00,,,0.00,Wunderground v.1.15,2015-03-31 08:28:00,
2015-03-31 02:34:00,32.8,20.4,30.14,SSW,203,0.0,0.0,60,0.00,,,0.00,Wunderground v.1.15,2015-03-31 08:34:00,
2015-03-31 02:39:00,32.5,20.5,30.14,SSW,203,0.0,0.0,61,0.00,,,0.00,Wunderground v.1.15,2015-03-31 08:39:00,
2015-03-31 02:45:00,32.4,20.4,30.14,SSW,203,0.0,0.0,61,0.00,,,0.00,Wunderground v.1.15,2015-03-31 08:45:00,
2015-03-31 02:51:00,32.4,20.8,30.14,SSW,203,0.0,0.0,62,0.00,,,0.00,Wunderground v.1.15,2015-03-31 08:51:00,
2015-03-31 02:57:00,33.1,21.1,30.13,SSW,203,0.0,0.0,61,0.00,,,0.00,Wunderground v.1.15,2015-03-31 08:57:00,
2015-03-31 03:03:00,33.6,20.8,30.13,SW,215,0.0,0.0,59,0.00,,,0.00,Wunderground v.1.15,2015-03-31 09:03:00,
2015-03-31 03:09:00,35.0,21.3,30.13,West,280,0.0,1.0,57,0.00,,,0.00,Wunderground v.1.15,2015-03-31 09:09:00,
2015-03-31 03:15:00,35.7,21.1,30.13,WNW,289,1.0,2.0,55,0.00,,,0.00,Wunderground v.1.15,2015-03-31 09:15:00,
2015-03-31 03:21:00,35.9,20.9,30.13,West,281,2.0,3.0,54,0.00,,,0.00,Wunderground v.1.15,2015-03-31 09:21:00,
2015-03-31 03:26:00,36.0,20.9,30.12,West,279,2.0,3.0,54,0.00,,,0.00,Wunderground v.1.15,2015-03-31 09:26:00,
2015-03-31 03:32:00,36.2,21.1,30.12,West,271,2.0,3.0,54,0.00,,,0.00,Wunderground v.1.15,2015-03-31 09:32:00,
2015-03-31 03:38:00,36.1,20.6,30.12,West,271,2.0,3.0,53,0.00,,,0.00,Wunderground v.1.15,2015-03-31 09:38:00,
2015-03-31 03:44:00,34.8,20.7,30.12,WNW,284,1.0,2.0,56,0.00,,,0.00,Wunderground v.1.15,2015-03-31 09:44:00,
2015-03-31 03:50:00,35.1,21.0,30.12,WNW,290,1.0,1.0,56,0.00,,,0.00,Wunderground v.1.15,2015-03-31 09:50:00,
2015-03-31 03:56:00,35.7,20.7,30.11,WNW,295,1.0,2.0,54,0.00,,,0.00,Wunderground v.1.15,2015-03-31 09:56:00,
2015-03-31 04:02:00,36.1,20.6,30.11,West,275,1.0,1.0,53,0.00,,,0.00,Wunderground v.1.15,2015-03-31 10:02:00,
2015-03-31 04:07:00,36.2,20.7,30.11,West,275,1.0,1.0,53,0.00,,,0.00,Wunderground v.1.15,2015-03-31 10:07:00,